Location: Peterborough
(44.3091°N, 78.3197°W)
Time: 06:20:02
(UTC-04:00)

Vanguard 2 - Pass Details

Date: 31 March 2023
Orbit: 552 x 2926 km, 32.9° (Epoch: 04 June)

Event Time Altitude Azimuth Distance (km) Brightness Sun altitude
Rises 06:02:59 0° 243° (WSW) 6,533 - -10.2°
Exits shadow 06:06:43 - 240° (WSW) 5,772 11.3 -9.6°
Reaches altitude 10° 06:07:19 10° 239° (WSW) 5,653 11.3 -9.5°
Maximum altitude 06:24:08 52° 170° (S) 3,286 10.7 -6.6°
Drops below altitude 10° 06:38:23 10° 100° (E) 4,871 13.1 -4.1°
Sets 06:41:47 0° 96° (E) 5,609 13.9 -3.5°
